Theta_e
310 307 307 308 308 310 311 311 311 312 312 312 312 312 312 313 313 313 314 314 314 315 318 321 323 324 327 328 329 335 335 335 335 334 334 337 335 333 332 332 330 331 334 332
307 308 309 310 310 311 310 310 311 312 313 312 311 312 312 312 312 313 313 313 314 314 315 316 322 324 325 326 328 330 335 334 334 333 332 333 332 332 333 332 328 327 328 331
308 309 310 309 311 312 311 311 313 314 314 313 311 311 311 312 312 312 313 313 313 313 314 316 317 322 324 325 325 327 333 335 334 333 332 333 333 333 332 331 326 325 327 336
308 308 309 311 312 313 312 313 313 313 313 312 310 311 310 310 310 311 312 312 312 313 313 314 315 318 323 324 325 327 329 334 334 332 333 332 331 329 328 326 326 324 332 337
308 308 309 311 313 313 313 311 312 314 313 311 311 307 310 309 310 310 309 310 311 311 312 313 314 318 320 324 325 326 329 332 333 332 333 332 330 330 329 328 324 323 336 342
308 311 311 313 313 312 311 312 311 310 309 310 310 307 309 309 309 309 310 312 313 312 311 312 313 315 317 323 325 324 327 332 333 332 332 332 330 329 327 327 325 324 332 344
310 310 310 312 312 309 308 311 311 312 309 310 309 310 309 310 311 312 313 314 315 316 316 314 313 313 316 319 324 325 326 334 333 332 331 330 329 327 326 325 324 325 334 344
309 309 310 310 310 307 307 308 310 315 314 312 311 312 310 310 315 316 315 314 313 314 316 317 316 315 314 316 322 326 329 334 332 331 329 328 327 327 326 325 325 325 337 346
309 312 310 311 310 310 309 307 309 312 312 310 311 311 310 317 316 315 313 313 313 313 314 317 318 318 318 322 322 326 327 332 331 329 328 328 327 327 326 326 327 327 337 346
310 311 311 310 310 309 310 310 311 311 311 313 313 312 311 317 316 314 313 312 312 313 314 318 320 322 325 324 323 325 328 330 328 327 328 327 325 326 327 329 329 329 341 346
310 309 311 310 310 309 310 311 313 311 313 315 316 312 315 316 315 314 312 313 313 314 317 319 320 327 325 324 323 324 327 329 329 328 325 325 324 327 329 332 332 328 341 347
311 310 311 311 310 309 310 311 311 308 313 313 312 312 313 313 312 312 313 313 313 314 317 319 320 326 336 333 331 332 331 332 330 327 328 326 328 331 336 332 329 341 347 346
311 309 312 309 308 309 311 310 309 310 312 312 314 312 313 314 314 312 314 313 314 316 320 320 318 319 335 335 334 332 332 333 331 330 328 327 327 334 338 340 347 349 347 346
312 310 310 311 311 308 311 311 311 311 315 313 313 314 314 315 315 314 313 314 315 317 318 319 317 320 336 337 333 331 331 335 333 328 327 330 342 342 341 346 350 348 347 345
309 312 311 311 312 313 313 313 311 311 312 314 313 315 314 314 315 314 314 315 316 317 317 317 321 320 327 338 341 336 333 334 331 332 342 344 342 346 348 347 347 346 343 341
309 311 312 313 313 313 314 313 312 311 312 312 312 314 314 314 314 315 315 316 316 318 319 317 318 321 334 329 336 341 337 339 344 344 342 343 347 347 344 344 340 339 338 336
310 311 314 312 313 312 313 311 311 313 313 313 313 314 313 314 314 313 314 315 317 315 315 315 316 319 323 331 329 334 338 341 341 341 342 345 347 344 342 340 339 337 334 333
312 314 313 312 309 312 310 314 314 314 314 311 312 315 314 313 312 311 312 315 313 312 312 313 315 317 327 331 329 331 337 340 340 342 343 345 342 341 339 336 335 332 333 333
309 312 312 312 308 311 312 315 314 313 312 314 314 312 312 311 310 310 311 311 311 311 312 313 314 315 328 331 328 330 338 338 340 342 342 340 338 339 337 334 333 334 333 333
311 311 312 311 313 312 307 314 312 311 312 314 312 311 311 311 311 310 309 309 310 310 311 313 313 315 324 327 327 327 332 339 339 340 340 338 338 336 333 334 333 333 333 331
315 313 313 313 312 312 311 313 311 310 312 313 312 312 311 310 310 311 310 310 310 310 311 312 313 314 316 320 328 326 329 335 338 337 337 336 332 333 334 333 332 333 333 331
308 313 312 312 314 311 314 312 311 309 312 312 311 312 312 312 311 310 310 310 310 310 310 311 312 314 315 320 327 323 327 335 337 335 333 334 335 333 332 332 333 332 332 332
310 310 312 313 309 309 313 313 313 313 313 312 312 312 312 312 310 309 310 310 310 310 310 311 312 312 316 322 332 328 334 333 334 334 335 336 332 330 331 331 332 333 333 331
311 310 310 309 310 311 312 313 313 312 313 313 313 312 311 310 309 310 309 309 310 310 310 311 312 312 317 323 327 330 332 333 333 334 335 334 331 330 332 332 333 333 332 330
307 307 309 310 311 312 313 313 313 312 313 312 312 310 309 309 309 308 307 308 308 309 310 311 311 313 317 322 327 326 332 334 333 333 334 332 330 331 333 333 333 332 330 330
308 309 310 312 312 313 313 312 312 312 312 311 309 309 309 309 308 307 306 307 308 309 311 311 312 314 318 326 327 329 332 335 333 333 332 331 330 332 332 332 331 330 330 330
Wind_Speed
7 4 4 8 7 12 7 9 7 5 6 7 13 19 14 11 13 14 21 22 28 32 35 48 38 41 41 38 27 42 47 40 43 37 30 29 31 32 33 34 29 28 29 30
6 4 6 6 7 6 9 11 12 5 5 8 9 20 17 13 11 18 21 26 27 36 38 39 41 41 44 42 45 30 43 42 42 38 34 31 26 33 34 30 28 31 29 26
3 8 10 8 5 9 6 8 10 13 15 13 8 17 13 13 12 18 21 26 32 30 35 39 41 41 46 42 45 40 38 43 43 39 36 35 35 35 33 32 32 33 27 25
7 8 5 3 2 3 4 7 13 14 9 6 4 15 16 11 8 9 17 23 28 34 37 41 41 43 44 50 42 42 36 46 46 41 41 41 37 36 35 31 34 30 26 28
10 4 7 4 1 2 5 9 13 13 8 7 10 5 14 14 20 18 16 27 34 37 41 42 45 41 44 49 49 41 36 43 52 46 42 38 35 32 30 30 30 28 28 29
10 6 3 6 4 4 7 5 5 5 3 6 8 6 17 12 14 13 14 23 27 36 41 43 47 44 41 45 52 43 41 37 51 47 43 37 33 30 28 31 28 26 26 28
4 3 2 4 3 4 1 3 4 5 3 6 2 6 12 11 10 13 13 19 32 37 36 42 46 45 42 38 49 47 41 42 49 45 42 37 32 29 27 29 26 26 26 30
1 6 4 6 2 4 5 6 4 5 3 10 4 7 7 7 9 14 15 22 29 37 40 38 40 47 51 45 44 47 37 48 47 42 40 37 35 31 28 28 26 27 25 30
2 4 6 8 7 2 4 3 4 3 1 2 4 7 8 2 6 10 15 23 31 39 43 46 35 40 44 45 46 46 44 46 46 44 40 38 35 32 32 31 25 26 27 28
3 8 7 5 7 5 6 4 2 2 3 4 5 7 9 5 10 12 13 20 34 44 47 45 42 36 40 39 44 47 45 47 45 41 36 34 32 31 33 31 28 28 26 29
2 3 4 6 5 5 3 3 1 1 3 3 4 5 6 7 8 11 14 26 30 35 39 38 33 32 28 40 48 44 46 48 44 35 32 32 31 26 27 31 31 28 27 29
3 3 4 10 17 13 7 5 4 4 2 3 4 10 3 5 8 7 13 22 32 33 33 34 35 28 11 24 28 27 28 26 26 27 26 24 21 22 26 30 29 28 28 27
2 2 5 6 5 5 2 3 3 2 1 7 4 6 2 9 9 8 20 31 36 24 3 36 37 30 23 12 17 22 20 20 21 23 23 21 22 24 27 27 25 28 30 29
7 5 7 7 10 5 14 17 14 11 3 6 10 13 11 13 10 8 19 25 25 8 10 36 39 32 16 13 19 20 22 21 23 26 24 24 22 24 27 27 28 29 30 26
5 5 7 14 18 19 20 19 18 16 12 8 10 8 10 13 9 8 10 21 20 17 24 36 37 26 19 10 11 20 20 29 32 29 26 24 25 25 29 29 28 28 26 25
2 6 3 16 17 18 21 20 16 14 10 5 8 9 3 14 16 10 15 18 19 24 19 25 35 39 19 17 3 9 20 31 32 29 28 29 31 31 30 27 29 26 26 26
4 3 3 5 7 12 7 9 8 4 2 3 5 4 4 5 11 11 19 13 13 22 27 31 38 39 37 29 4 10 26 31 30 30 32 35 33 29 25 26 25 26 27 24
7 3 2 5 5 3 5 4 4 3 3 6 6 4 6 10 19 22 22 10 24 26 35 39 37 41 36 17 15 19 28 31 32 33 35 34 27 27 27 27 26 25 23 22
14 5 2 3 2 9 9 3 2 2 5 2 3 4 8 18 25 21 15 27 31 29 32 34 34 35 27 24 15 10 20 29 34 36 32 32 27 30 26 25 24 25 24 22
4 5 3 2 2 4 5 4 7 3 5 4 3 6 6 10 11 17 34 44 44 38 33 32 33 30 22 23 11 20 24 22 32 35 34 29 28 26 28 27 25 23 22 22
3 3 7 7 5 7 6 5 3 4 4 9 10 18 17 8 15 35 43 45 36 34 34 31 29 28 25 25 19 27 29 16 35 30 29 27 26 28 29 28 23 22 22 21
6 4 4 4 5 6 7 5 5 7 10 16 25 26 26 35 35 36 33 36 35 34 33 26 28 27 26 27 6 25 33 21 25 29 32 31 28 27 26 25 22 21 20 19
3 5 2 6 6 7 8 7 18 24 27 25 19 24 23 35 34 40 34 31 37 32 31 26 27 28 21 23 6 29 17 20 33 31 30 30 28 24 22 23 22 21 19 20
4 4 3 7 5 11 25 26 25 25 23 24 25 20 19 33 35 30 35 33 36 30 28 25 25 24 19 19 4 24 16 19 33 31 30 32 28 27 22 21 19 20 20 18
9 10 6 9 14 18 23 16 30 28 31 27 25 27 29 33 34 29 36 38 39 33 30 24 24 22 23 16 6 27 22 26 31 30 31 35 30 26 25 21 20 17 15 13
5 5 6 12 17 16 21 34 35 33 26 21 31 33 29 31 39 33 35 38 33 31 27 24 22 18 19 14 24 20 24 37 36 36 39 34 29 26 24 22 24 19 15 14
Wind_Direction
315 62 268 257 216 239 258 273 295 294 264 275 282 280 288 289 287 294 301 302 303 299 294 269 261 260 264 261 269 239 227 218 213 212 214 216 224 232 236 242 253 262 264 274
8 282 253 259 304 327 324 313 318 315 299 283 285 283 286 280 269 267 283 291 291 300 297 290 277 259 257 261 260 255 228 220 210 214 225 231 249 242 242 250 258 267 271 268
196 250 290 317 349 357 341 325 335 322 317 314 295 279 284 288 282 290 290 291 296 297 294 297 289 276 258 255 260 254 237 224 218 223 222 228 231 236 244 252 259 268 263 262
261 264 306 275 304 74 327 300 304 294 303 287 303 285 290 304 304 305 303 298 294 299 298 298 297 287 267 254 258 253 252 234 224 231 221 226 234 237 249 256 268 265 261 258
246 318 280 276 150 285 261 301 286 288 267 292 269 263 285 298 290 287 286 288 292 292 295 296 294 296 286 271 254 248 256 241 230 226 230 226 231 242 256 264 258 255 254 254
239 255 152 178 225 216 252 289 328 290 214 248 269 204 282 279 275 276 287 287 299 299 289 283 287 285 286 276 260 254 250 258 227 223 230 232 237 247 256 254 246 246 249 247
326 287 216 160 252 303 38 55 327 330 348 246 323 303 253 270 274 294 328 346 329 317 316 292 282 283 278 283 262 247 244 237 221 220 229 236 246 251 252 247 242 242 243 241
289 320 24 354 252 252 302 170 183 271 281 290 292 247 263 296 44 346 348 336 331 326 311 306 291 281 278 276 260 238 229 220 216 221 228 241 247 247 247 242 242 239 240 241
347 254 330 299 306 77 284 250 207 232 323 51 242 276 281 356 330 338 328 325 319 318 315 311 302 286 273 272 251 231 222 219 219 222 234 240 242 247 245 240 239 239 236 238
291 293 216 269 326 300 147 234 298 330 282 269 277 269 262 322 307 316 309 316 314 308 310 310 312 290 272 245 239 227 223 214 223 230 233 235 243 248 245 235 234 234 230 229
323 205 274 327 232 240 300 296 171 129 211 241 300 254 201 247 274 291 314 322 310 308 307 309 314 315 269 231 231 228 226 225 227 220 226 233 235 237 240 232 231 237 225 213
198 242 284 264 274 273 211 209 150 123 269 262 222 274 53 236 249 295 308 319 314 307 302 309 321 322 252 183 183 190 192 195 198 206 217 224 230 232 222 230 233 218 210 205
183 257 302 315 359 10 320 229 212 157 146 220 239 274 262 262 258 302 324 337 318 322 277 297 318 311 284 252 216 204 212 214 212 207 206 216 223 221 226 217 209 201 198 197
177 206 195 248 271 243 284 282 277 246 216 253 255 286 294 295 284 279 331 321 312 351 231 289 307 312 306 258 243 226 220 214 211 199 200 207 211 208 199 195 196 201 200 189
168 239 225 249 265 267 263 277 280 272 260 247 269 239 264 263 253 248 298 318 342 41 287 305 329 326 332 314 245 216 211 199 194 190 188 194 190 183 188 190 190 179 178 177
232 280 265 288 274 266 269 269 272 275 255 264 270 287 277 275 251 298 294 303 321 293 311 327 341 359 3 348 302 215 198 185 181 183 187 182 181 177 180 183 169 170 169 172
238 252 288 267 331 309 290 277 236 215 274 226 265 268 327 315 301 315 297 293 281 313 333 345 347 353 4 0 237 276 201 187 186 186 179 174 171 172 170 172 171 171 175 173
219 183 234 292 341 285 234 25 58 327 214 312 301 270 291 307 308 305 301 327 321 334 333 340 341 355 16 5 331 282 214 194 185 178 168 164 164 167 164 164 168 169 172 175
200 163 234 255 207 271 289 150 132 187 269 259 278 307 317 318 322 311 308 314 315 322 330 331 339 350 12 8 342 335 183 189 178 168 165 164 169 166 169 168 165 171 174 179
95 105 193 202 245 266 250 153 166 109 295 235 275 277 273 314 313 302 317 320 318 320 323 320 324 340 352 14 106 155 206 200 172 167 162 164 170 171 165 166 169 174 175 176
175 222 224 243 249 267 228 178 190 122 265 198 266 298 281 251 263 290 305 307 309 310 309 312 316 324 338 333 332 197 233 192 172 161 170 165 161 166 168 168 173 178 183 187
185 203 219 235 229 266 172 177 179 211 263 245 272 273 274 283 291 295 296 295 301 306 307 305 310 312 334 334 315 221 246 171 167 161 158 163 163 159 170 173 174 182 186 191
277 201 213 214 236 256 248 242 294 302 284 280 256 266 270 282 290 295 294 294 298 305 302 294 300 310 335 331 215 227 210 178 168 164 165 164 150 157 166 175 182 185 192 191
302 338 274 316 273 286 284 282 298 289 290 295 282 262 265 277 284 281 290 292 291 300 294 292 302 305 318 314 117 211 215 200 175 170 172 165 159 165 170 179 187 186 181 185
275 297 265 264 281 294 284 287 305 288 297 291 282 288 286 269 273 277 282 279 280 285 284 293 295 295 314 312 223 199 221 198 177 171 169 166 164 166 168 170 170 175 178 185
212 239 296 285 287 285 292 303 308 294 289 292 293 284 272 267 270 270 269 269 270 273 274 281 282 286 325 265 211 258 236 190 180 171 164 165 167 167 168 170 166 167 182 179